#Datum;Uhrzeit;WR;Pac;DaySum;Status;WR;Pac;DaySum;Status;Pdc1;Udc;Temp;WR;Pac;DaySum;Status;Pdc1;Udc;Temp;WR;Pac;DaySum;Status;Pdc1;Udc;Temp;WR;Pac;DaySum;Status;Pdc1;Pdc2;Udc1;Udc2;Temp;WR;Pac;DaySum;Status;Pdc1;Pdc2;Udc1;Udc2;Temp;WR;Pac;DaySum;Status;Pdc1;Udc;Temp;WR;Pac;DaySum;Status;Pdc1;Udc;Temp;WR;Pac;DaySum;Status;Pdc1;Udc;Temp
21.01.20;23:55:00;1;317;16760;0;2;0;7453;0;0;0;0;3;0;4839;0;0;0;0;4;0;6709;0;0;0;0;5;0;17459;0;0;0;0;0;0;6;0;13150;0;0;0;0;0;0;7;0;9829;0;0;0;0;8;0;9770;0;0;0;0;9;0;5215;0;0;0;0
21.01.20;23:50:00;1;839;16733;0;2;0;7453;0;0;0;0;3;0;4839;0;0;0;0;4;0;6709;0;0;0;0;5;0;17459;0;0;0;0;0;0;6;0;13150;0;0;0;0;0;0;7;0;9829;0;0;0;0;8;0;9770;0;0;0;0;9;0;5215;0;0;0;0
21.01.20;23:45:00;1;322;16685;0;2;0;7453;0;0;0;0;3;0;4839;0;0;0;0;4;0;6709;0;0;0;0;5;0;17459;0;0;0;0;0;0;6;0;13150;0;0;0;0;0;0;7;0;9829;0;0;0;0;8;0;9770;0;0;0;0;9;0;5215;0;0;0;0
21.01.20;23:40:00;1;334;16658;0;2;0;7453;0;0;0;0;3;0;4839;0;0;0;0;4;0;6709;0;0;0;0;5;0;17459;0;0;0;0;0;0;6;0;13150;0;0;0;0;0;0;7;0;9829;0;0;0;0;8;0;9770;0;0;0;0;9;0;5215;0;0;0;0
21.01.20;23:35:00;1;278;16631;0;2;0;7453;0;0;0;0;3;0;4839;0;0;0;0;4;0;6709;0;0;0;0;5;0;17459;0;0;0;0;0;0;6;0;13150;0;0;0;0;0;0;7;0;9829;0;0;0;0;8;0;9770;0;0;0;0;9;0;5215;0;0;0;0
21.01.20;23:30:00;1;415;16608;0;2;0;7453;0;0;0;0;3;0;4839;0;0;0;0;4;0;6709;0;0;0;0;5;0;17459;0;0;0;0;0;0;6;0;13150;0;0;0;0;0;0;7;0;9829;0;0;0;0;8;0;9770;0;0;0;0;9;0;5215;0;0;0;0
21.01.20;23:25:00;1;745;16558;0;2;0;7453;0;0;0;0;3;0;4839;0;0;0;0;4;0;6709;0;0;0;0;5;0;17459;0;0;0;0;0;0;6;0;13150;0;0;0;0;0;0;7;0;9829;0;0;0;0;8;0;9770;0;0;0;0;9;0;5215;0;0;0;0
21.01.20;23:20:00;1;2180;16450;0;2;0;7453;0;0;0;0;3;0;4839;0;0;0;0;4;0;6709;0;0;0;0;5;0;17459;0;0;0;0;0;0;6;0;13150;0;0;0;0;0;0;7;0;9829;0;0;0;0;8;0;9770;0;0;0;0;9;0;5215;0;0;0;0
21.01.20;23:15:00;1;612;16288;0;2;0;7453;0;0;0;0;3;0;4839;0;0;0;0;4;0;6709;0;0;0;0;5;0;17459;0;0;0;0;0;0;6;0;13150;0;0;0;0;0;0;7;0;9829;0;0;0;0;8;0;9770;0;0;0;0;9;0;5215;0;0;0;0
21.01.20;23:10:00;1;315;16242;0;2;0;7453;0;0;0;0;3;0;4839;0;0;0;0;4;0;6709;0;0;0;0;5;0;17459;0;0;0;0;0;0;6;0;13150;0;0;0;0;0;0;7;0;9829;0;0;0;0;8;0;9770;0;0;0;0;9;0;5215;0;0;0;0
21.01.20;23:05:00;1;342;16216;0;2;0;7453;0;0;0;0;3;0;4839;0;0;0;0;4;0;6709;0;0;0;0;5;0;17459;0;0;0;0;0;0;6;0;13150;0;0;0;0;0;0;7;0;9829;0;0;0;0;8;0;9770;0;0;0;0;9;0;5215;0;0;0;0
21.01.20;23:00:00;1;346;16187;0;2;0;7453;0;0;0;0;3;0;4839;0;0;0;0;4;0;6709;0;0;0;0;5;0;17459;0;0;0;0;0;0;6;0;13150;0;0;0;0;0;0;7;0;9829;0;0;0;0;8;0;9770;0;0;0;0;9;0;5215;0;0;0;0
21.01.20;22:55:00;1;1018;16158;0;2;0;7453;0;0;0;0;3;0;4839;0;0;0;0;4;0;6709;0;0;0;0;5;0;17459;2;0;0;0;0;0;6;0;13150;2;0;0;0;0;0;7;0;9829;0;0;0;0;8;0;9770;0;0;0;0;9;0;5215;0;0;0;0
21.01.20;22:50:00;1;347;16107;0;2;0;7453;0;0;0;0;3;0;4839;0;0;0;0;4;0;6709;0;0;0;0;5;0;17459;2;0;0;0;0;0;6;0;13150;2;0;0;0;0;0;7;0;9829;0;0;0;0;8;0;9770;0;0;0;0;9;0;5215;0;0;0;0
21.01.20;22:45:00;1;378;16078;0;2;0;7453;0;0;0;0;3;0;4839;0;0;0;0;4;0;6709;0;0;0;0;5;0;17459;2;0;0;0;0;0;6;0;13150;2;0;0;0;0;0;7;0;9829;0;0;0;0;8;0;9770;0;0;0;0;9;0;5215;0;0;0;0
21.01.20;22:40:00;1;391;16046;0;2;0;7453;0;0;0;0;3;0;4839;0;0;0;0;4;0;6709;0;0;0;0;5;0;17459;2;0;0;0;0;0;6;0;13150;2;0;0;0;0;0;7;0;9829;0;0;0;0;8;0;9770;0;0;0;0;9;0;5215;0;0;0;0
21.01.20;22:35:00;1;1100;16009;0;2;0;7453;0;0;0;0;3;0;4839;0;0;0;0;4;0;6709;0;0;0;0;5;0;17459;2;0;0;0;0;0;6;0;13150;2;0;0;0;0;0;7;0;9829;0;0;0;0;8;0;9770;0;0;0;0;9;0;5215;0;0;0;0
21.01.20;22:30:00;1;375;15956;0;2;0;7453;0;0;0;0;3;0;4839;0;0;0;0;4;0;6709;0;0;0;0;5;0;17459;2;0;0;0;0;0;6;0;13150;2;0;0;0;0;0;7;0;9829;0;0;0;0;8;0;9770;0;0;0;0;9;0;5215;0;0;0;0
21.01.20;22:25:00;1;289;15925;0;2;0;7453;0;0;0;0;3;0;4839;0;0;0;0;4;0;6709;0;0;0;0;5;0;17459;2;0;0;0;0;0;6;0;13150;2;0;0;0;0;0;7;0;9829;0;0;0;0;8;0;9770;0;0;0;0;9;0;5215;0;0;0;0
21.01.20;22:20:00;1;769;15901;0;2;0;7453;0;0;0;0;3;0;4839;0;0;0;0;4;0;6709;0;0;0;0;5;0;17459;2;0;0;0;0;0;6;0;13150;2;0;0;0;0;0;7;0;9829;0;0;0;0;8;0;9770;0;0;0;0;9;0;5215;0;0;0;0
21.01.20;22:15:00;1;294;15809;0;2;0;7453;0;0;0;0;3;0;4839;0;0;0;0;4;0;6709;0;0;0;0;5;0;17459;2;0;0;0;0;0;6;0;13150;2;0;0;0;0;0;7;0;9829;0;0;0;0;8;0;9770;0;0;0;0;9;0;5215;0;0;0;0
21.01.20;22:10:00;1;3370;15778;0;2;0;7453;0;0;0;0;3;0;4839;0;0;0;0;4;0;6709;0;0;0;0;5;0;17459;2;0;0;0;0;0;6;0;13150;2;0;0;0;0;0;7;0;9829;0;0;0;0;8;0;9770;0;0;0;0;9;0;5215;0;0;0;0
21.01.20;22:05:00;1;403;15524;0;2;0;7453;0;0;0;0;3;0;4839;0;0;0;0;4;0;6709;0;0;0;0;5;0;17459;2;0;0;0;0;0;6;0;13150;2;0;0;0;0;0;7;0;9829;0;0;0;0;8;0;9770;0;0;0;0;9;0;5215;0;0;0;0
21.01.20;22:00:00;1;568;15490;0;2;0;7453;0;0;0;0;3;0;4839;0;0;0;0;4;0;6709;0;0;0;0;5;0;17459;2;0;0;0;0;0;6;0;13150;2;0;0;0;0;0;7;0;9829;0;0;0;0;8;0;9770;0;0;0;0;9;0;5215;0;0;0;0
21.01.20;21:55:00;1;582;15420;0;2;0;7453;0;0;0;0;3;0;4839;0;0;0;0;4;0;6709;0;0;0;0;5;0;17459;2;0;0;0;0;0;6;0;13150;2;0;0;0;0;0;7;0;9829;0;0;0;0;8;0;9770;0;0;0;0;9;0;5215;0;0;0;0
21.01.20;21:50:00;1;605;15371;0;2;0;7453;0;0;0;0;3;0;4839;0;0;0;0;4;0;6709;0;0;0;0;5;0;17459;2;0;0;0;0;0;6;0;13150;2;0;0;0;0;0;7;0;9829;0;0;0;0;8;0;9770;0;0;0;0;9;0;5215;0;0;0;0
21.01.20;21:45:00;1;704;15320;0;2;0;7453;0;0;0;0;3;0;4839;0;0;0;0;4;0;6709;0;0;0;0;5;0;17459;2;0;0;0;0;0;6;0;13150;2;0;0;0;0;0;7;0;9829;0;0;0;0;8;0;9770;0;0;0;0;9;0;5215;0;0;0;0
21.01.20;21:40:00;1;1501;15241;0;2;0;7453;0;0;0;0;3;0;4839;0;0;0;0;4;0;6709;0;0;0;0;5;0;17459;2;0;0;0;0;0;6;0;13150;2;0;0;0;0;0;7;0;9829;0;0;0;0;8;0;9770;0;0;0;0;9;0;5215;0;0;0;0
21.01.20;21:35:00;1;1030;15146;0;2;0;7453;0;0;0;0;3;0;4839;0;0;0;0;4;0;6709;0;0;0;0;5;0;17459;2;0;0;0;0;0;6;0;13150;2;0;0;0;0;0;7;0;9829;0;0;0;0;8;0;9770;0;0;0;0;9;0;5215;0;0;0;0
21.01.20;21:30:00;1;1076;15059;0;2;0;7453;0;0;0;0;3;0;4839;0;0;0;0;4;0;6709;0;0;0;0;5;0;17459;2;0;0;0;0;0;6;0;13150;2;0;0;0;0;0;7;0;9829;0;0;0;0;8;0;9770;0;0;0;0;9;0;5215;0;0;0;0
21.01.20;21:25:00;1;1208;14967;0;2;0;7453;0;0;0;0;3;0;4839;0;0;0;0;4;0;6709;0;0;0;0;5;0;17459;2;0;0;0;0;0;6;0;13150;2;0;0;0;0;0;7;0;9829;0;0;0;0;8;0;9770;0;0;0;0;9;0;5215;0;0;0;0
21.01.20;21:20:00;1;1123;14854;0;2;0;7453;0;0;0;0;3;0;4839;0;0;0;0;4;0;6709;0;0;0;0;5;0;17459;2;0;0;0;0;0;6;0;13150;2;0;0;0;0;0;7;0;9829;0;0;0;0;8;0;9770;0;0;0;0;9;0;5215;0;0;0;0
21.01.20;21:15:00;1;1414;14758;0;2;0;7453;0;0;0;0;3;0;4839;0;0;0;0;4;0;6709;0;0;0;0;5;0;17459;2;0;0;0;0;0;6;0;13150;2;0;0;0;0;0;7;0;9829;0;0;0;0;8;0;9770;0;0;0;0;9;0;5215;0;0;0;0
21.01.20;21:10:00;1;994;14646;0;2;0;7453;0;0;0;0;3;0;4839;0;0;0;0;4;0;6709;0;0;0;0;5;0;17459;2;0;0;0;0;0;6;0;13150;2;0;0;0;0;0;7;0;9829;0;0;0;0;8;0;9770;0;0;0;0;9;0;5215;0;0;0;0
21.01.20;21:05:00;1;1345;14555;0;2;0;7453;0;0;0;0;3;0;4839;0;0;0;0;4;0;6709;0;0;0;0;5;0;17459;2;0;0;0;0;0;6;0;13150;2;0;0;0;0;0;7;0;9829;0;0;0;0;8;0;9770;0;0;0;0;9;0;5215;0;0;0;0
21.01.20;21:00:00;1;2806;14432;0;2;0;7453;0;0;0;0;3;0;4839;0;0;0;0;4;0;6709;0;0;0;0;5;0;17459;2;0;0;0;0;0;6;0;13150;2;0;0;0;0;0;7;0;9829;0;0;0;0;8;0;9770;0;0;0;0;9;0;5215;0;0;0;0
21.01.20;20:55:00;1;3076;14171;0;2;0;7453;0;0;0;0;3;0;4839;0;0;0;0;4;0;6709;0;0;0;0;5;0;17459;2;0;0;0;0;0;6;0;13150;2;0;0;0;0;0;7;0;9829;0;0;0;0;8;0;9770;0;0;0;0;9;0;5215;0;0;0;0
21.01.20;20:50:00;1;1451;13926;0;2;0;7453;0;0;0;0;3;0;4839;0;0;0;0;4;0;6709;0;0;0;0;5;0;17459;2;0;0;0;0;0;6;0;13150;2;0;0;0;0;0;7;0;9829;0;0;0;0;8;0;9770;0;0;0;0;9;0;5215;0;0;0;0
21.01.20;20:45:00;1;1585;13806;0;2;0;7453;0;0;0;0;3;0;4839;0;0;0;0;4;0;6709;0;0;0;0;5;0;17459;2;0;0;0;0;0;6;0;13150;2;0;0;0;0;0;7;0;9829;0;0;0;0;8;0;9770;0;0;0;0;9;0;5215;0;0;0;0
21.01.20;20:40:00;1;1138;13643;0;2;0;7453;0;0;0;0;3;0;4839;0;0;0;0;4;0;6709;0;0;0;0;5;0;17459;2;0;0;0;0;0;6;0;13150;2;0;0;0;0;0;7;0;9829;0;0;0;0;8;0;9770;0;0;0;0;9;0;5215;0;0;0;0
21.01.20;20:35:00;1;1003;13548;0;2;0;7453;0;0;0;0;3;0;4839;0;0;0;0;4;0;6709;0;0;0;0;5;0;17459;2;0;0;0;0;0;6;0;13150;2;0;0;0;0;0;7;0;9829;0;0;0;0;8;0;9770;0;0;0;0;9;0;5215;0;0;0;0
21.01.20;20:30:00;1;1071;13463;0;2;0;7453;0;0;0;0;3;0;4839;0;0;0;0;4;0;6709;0;0;0;0;5;0;17459;2;0;0;0;0;0;6;0;13150;2;0;0;0;0;0;7;0;9829;0;0;0;0;8;0;9770;0;0;0;0;9;0;5215;0;0;0;0
21.01.20;20:25:00;1;1745;13368;0;2;0;7453;0;0;0;0;3;0;4839;0;0;0;0;4;0;6709;0;0;0;0;5;0;17459;2;0;0;0;0;0;6;0;13150;2;0;0;0;0;0;7;0;9829;0;0;0;0;8;0;9770;0;0;0;0;9;0;5215;0;0;0;0
21.01.20;20:20:00;1;1220;13268;0;2;0;7453;0;0;0;0;3;0;4839;0;0;0;0;4;0;6709;0;0;0;0;5;0;17459;2;0;0;0;0;0;6;0;13150;2;0;0;0;0;0;7;0;9829;0;0;0;0;8;0;9770;0;0;0;0;9;0;5215;0;0;0;0
21.01.20;20:15:00;1;996;13175;0;2;0;7453;0;0;0;0;3;0;4839;0;0;0;0;4;0;6709;0;0;0;0;5;0;17459;2;0;0;0;0;0;6;0;13150;2;0;0;0;0;0;7;0;9829;0;0;0;0;8;0;9770;0;0;0;0;9;0;5215;0;0;0;0
21.01.20;20:10:00;1;2730;13071;0;2;0;7453;0;0;0;0;3;0;4839;0;0;0;0;4;0;6709;0;0;0;0;5;0;17459;2;0;0;0;0;0;6;0;13150;2;0;0;0;0;0;7;0;9829;0;0;0;0;8;0;9770;0;0;0;0;9;0;5215;0;0;0;0
21.01.20;20:05:00;1;1162;12872;0;2;0;7453;0;0;0;0;3;0;4839;0;0;0;0;4;0;6709;0;0;0;0;5;0;17459;2;0;0;0;0;0;6;0;13150;2;0;0;0;0;0;7;0;9829;0;0;0;0;8;0;9770;0;0;0;0;9;0;5215;0;0;0;0
21.01.20;20:00:00;1;1223;12772;0;2;0;7453;0;0;0;0;3;0;4839;0;0;0;0;4;0;6709;0;0;0;0;5;0;17459;2;0;0;0;0;0;6;0;13150;2;0;0;0;0;0;7;0;9829;0;0;0;0;8;0;9770;0;0;0;0;9;0;5215;0;0;0;0
21.01.20;19:55:00;1;945;12676;0;2;0;7453;0;0;0;0;3;0;4839;0;0;0;0;4;0;6709;0;0;0;0;5;0;17459;2;0;0;0;0;0;6;0;13150;2;0;0;0;0;0;7;0;9829;0;0;0;0;8;0;9770;0;0;0;0;9;0;5215;0;0;0;0
21.01.20;19:50:00;1;1547;12597;0;2;0;7453;0;0;0;0;3;0;4839;0;0;0;0;4;0;6709;0;0;0;0;5;0;17459;2;0;0;0;0;0;6;0;13150;2;0;0;0;0;0;7;0;9829;0;0;0;0;8;0;9770;0;0;0;0;9;0;5215;0;0;0;0
21.01.20;19:45:00;1;2626;12496;0;2;0;7453;0;0;0;0;3;0;4839;0;0;0;0;4;0;6709;0;0;0;0;5;0;17459;2;0;0;0;0;0;6;0;13150;2;0;0;0;0;0;7;0;9829;0;0;0;0;8;0;9770;0;0;0;0;9;0;5215;0;0;0;0
21.01.20;19:40:00;1;2062;12266;0;2;0;7453;0;0;0;0;3;0;4839;0;0;0;0;4;0;6709;0;0;0;0;5;0;17459;2;0;0;0;0;0;6;0;13150;2;0;0;0;0;0;7;0;9829;0;0;0;0;8;0;9770;0;0;0;0;9;0;5215;0;0;0;0
21.01.20;19:35:00;1;942;12108;0;2;0;7453;0;0;0;0;3;0;4839;0;0;0;0;4;0;6709;0;0;0;0;5;0;17459;2;0;0;0;0;0;6;0;13150;2;0;0;0;0;0;7;0;9829;0;0;0;0;8;0;9770;0;0;0;0;9;0;5215;0;0;0;0
21.01.20;19:30:00;1;948;12029;0;2;0;7453;0;0;0;0;3;0;4839;0;0;0;0;4;0;6709;0;0;0;0;5;0;17459;2;0;0;0;0;0;6;0;13150;2;0;0;0;0;0;7;0;9829;0;0;0;0;8;0;9770;0;0;0;0;9;0;5215;0;0;0;0
21.01.20;19:25:00;1;943;11925;0;2;0;7453;0;0;0;0;3;0;4839;0;0;0;0;4;0;6709;0;0;0;0;5;0;17459;2;0;0;0;0;0;6;0;13150;2;0;0;0;0;0;7;0;9829;0;0;0;0;8;0;9770;0;0;0;0;9;0;5215;0;0;0;0
21.01.20;19:20:00;1;920;11845;0;2;0;7453;0;0;0;0;3;0;4839;0;0;0;0;4;0;6709;0;0;0;0;5;0;17459;2;0;0;0;0;0;6;0;13150;2;0;0;0;0;0;7;0;9829;0;0;0;0;8;0;9770;0;0;0;0;9;0;5215;0;0;0;0
21.01.20;19:15:00;1;893;11768;0;2;0;7453;0;0;0;0;3;0;4839;0;0;0;0;4;0;6709;0;0;0;0;5;0;17459;2;0;0;0;0;0;6;0;13150;2;0;0;0;0;0;7;0;9829;0;0;0;0;8;0;9770;0;0;0;0;9;0;5215;0;0;0;0
21.01.20;19:10:00;1;1238;11693;0;2;0;7453;0;0;0;0;3;0;4839;0;0;0;0;4;0;6709;0;0;0;0;5;0;17459;2;0;0;0;0;0;6;0;13150;2;0;0;0;0;0;7;0;9829;0;0;0;0;8;0;9770;0;0;0;0;9;0;5215;0;0;0;0
21.01.20;19:05:00;1;983;11592;0;2;0;7453;0;0;0;0;3;0;4839;0;0;0;0;4;0;6709;0;0;0;0;5;0;17459;2;0;0;0;0;0;6;0;13150;2;0;0;0;0;0;7;0;9829;0;0;0;0;8;0;9770;0;0;0;0;9;0;5215;0;0;0;0
21.01.20;19:00:00;1;1016;11509;0;2;0;7453;0;0;0;0;3;0;4839;0;0;0;0;4;0;6709;0;0;0;0;5;0;17459;2;0;0;0;0;0;6;0;13150;2;0;0;0;0;0;7;0;9829;0;0;0;0;8;0;9770;0;0;0;0;9;0;5215;0;0;0;0
21.01.20;18:55:00;1;999;11425;0;2;0;7453;0;0;0;0;3;0;4839;0;0;0;0;4;0;6709;0;0;0;0;5;0;17459;2;0;0;0;0;0;6;0;13150;2;0;0;0;0;0;7;0;9829;0;0;0;0;8;0;9770;0;0;0;0;9;0;5215;0;0;0;0
21.01.20;18:50:00;1;1283;11340;0;2;0;7453;0;0;0;0;3;0;4839;0;0;0;0;4;0;6709;0;0;0;0;5;0;17459;2;0;0;0;0;0;6;0;13150;2;0;0;0;0;0;7;0;9829;0;0;0;0;8;0;9770;0;0;0;0;9;0;5215;0;0;0;0
21.01.20;18:45:00;1;888;11237;0;2;0;7453;0;0;0;0;3;0;4839;0;0;0;0;4;0;6709;0;0;0;0;5;0;17459;2;0;0;0;0;0;6;0;13150;2;0;0;0;0;0;7;0;9829;0;0;0;0;8;0;9770;0;0;0;0;9;0;5215;0;0;0;0
21.01.20;18:40:00;1;939;11162;0;2;0;7453;0;0;0;0;3;0;4839;0;0;0;0;4;0;6709;0;0;0;0;5;0;17459;2;0;0;0;0;0;6;0;13150;2;0;0;0;0;0;7;0;9829;0;0;0;0;8;0;9770;0;0;0;0;9;0;5215;0;0;0;0
21.01.20;18:35:00;1;864;11084;0;2;0;7453;0;0;0;0;3;0;4839;0;0;0;0;4;0;6709;0;0;0;0;5;0;17459;2;0;0;0;0;0;6;0;13150;2;0;0;0;0;0;7;0;9829;0;0;0;0;8;0;9770;0;0;0;0;9;0;5215;0;0;0;0
21.01.20;18:30:00;1;1313;11012;0;2;0;7453;0;0;0;0;3;0;4839;0;0;0;0;4;0;6709;0;0;0;0;5;0;17459;2;0;0;0;0;0;6;0;13150;2;0;0;0;0;0;7;0;9829;0;0;0;0;8;0;9770;0;0;0;0;9;0;5215;0;0;0;0
21.01.20;18:25:00;1;2964;10820;0;2;0;7453;0;0;0;0;3;0;4839;0;0;0;0;4;0;6709;0;0;0;0;5;0;17459;2;0;0;0;0;0;6;0;13150;2;0;0;0;0;0;7;0;9829;0;0;0;0;8;0;9770;0;0;0;0;9;0;5215;0;0;0;0
21.01.20;18:20:00;1;838;10630;0;2;0;7453;0;0;0;0;3;0;4839;0;0;0;0;4;0;6709;0;0;0;0;5;0;17459;2;0;0;0;0;0;6;0;13150;2;0;0;0;0;0;7;0;9829;0;0;0;0;8;0;9770;0;0;0;0;9;0;5215;0;0;0;0
21.01.20;18:15:00;1;863;10560;0;2;0;7453;0;0;0;0;3;0;4839;0;0;0;0;4;0;6709;0;0;0;0;5;0;17459;2;0;0;0;0;0;6;0;13150;2;0;0;0;0;0;7;0;9829;0;0;0;0;8;0;9770;0;0;0;0;9;0;5215;0;0;0;0
21.01.20;18:10:00;1;1180;10481;0;2;0;7453;0;0;0;0;3;0;4839;0;0;0;0;4;0;6709;0;0;0;0;5;0;17459;2;0;0;0;0;0;6;0;13150;2;0;0;0;0;0;7;0;9829;0;0;0;0;8;0;9770;0;0;0;0;9;0;5215;0;0;0;0
21.01.20;18:05:00;1;807;10396;0;2;0;7453;0;0;0;0;3;0;4839;0;0;0;0;4;0;6709;0;0;0;0;5;0;17459;2;0;0;0;0;0;6;0;13150;2;0;0;0;0;0;7;0;9829;0;0;0;0;8;0;9770;0;0;0;0;9;0;5215;0;0;0;0
21.01.20;18:00:00;1;879;10327;0;2;0;7453;0;0;0;0;3;0;4839;0;0;0;0;4;0;6709;0;0;0;0;5;0;17459;2;0;0;0;0;0;6;0;13150;2;0;0;0;0;0;7;0;9829;0;0;0;0;8;0;9770;0;0;0;0;9;0;5215;0;0;0;0
21.01.20;17:55:00;1;1029;10255;0;2;0;7453;0;0;0;0;3;0;4839;0;0;0;0;4;0;6709;0;0;0;0;5;0;17459;2;0;0;0;0;0;6;0;13150;2;0;0;0;0;0;7;0;9829;0;0;0;0;8;0;9770;0;0;0;0;9;0;5215;0;0;0;0
21.01.20;17:50:00;1;576;10176;0;2;0;7453;0;0;0;0;3;0;4839;0;0;0;0;4;0;6709;0;0;0;0;5;0;17459;2;0;0;0;0;0;6;0;13150;2;0;0;0;0;0;7;0;9829;0;0;0;0;8;0;9770;0;0;0;0;9;0;5215;0;0;0;0
21.01.20;17:45:00;1;545;10129;0;2;0;7453;0;0;0;0;3;0;4839;0;0;0;0;4;0;6709;0;0;0;0;5;0;17459;2;0;0;0;0;0;6;0;13150;2;0;0;0;0;0;7;0;9829;0;0;0;0;8;0;9770;0;0;0;0;9;0;5215;0;0;0;0
21.01.20;17:40:00;1;533;10084;0;2;0;7453;0;0;0;0;3;0;4839;0;0;0;0;4;0;6709;0;0;0;0;5;0;17459;2;0;0;0;0;0;6;0;13150;2;0;0;0;0;0;7;0;9829;0;0;0;0;8;0;9770;0;0;0;0;9;0;5215;0;0;0;0
21.01.20;17:35:00;1;625;10039;0;2;0;7453;0;0;0;0;3;0;4839;0;0;0;0;4;0;6709;0;0;0;0;5;0;17459;2;0;0;0;0;0;6;0;13150;2;0;0;0;0;0;7;0;9829;0;0;0;0;8;0;9770;0;0;0;0;9;0;5215;0;0;0;0
21.01.20;17:30:00;1;616;9962;0;2;0;7453;0;0;0;0;3;0;4839;0;0;0;0;4;0;6709;0;0;0;0;5;0;17459;2;0;0;0;0;0;6;0;13150;2;0;0;0;0;0;7;0;9829;0;0;0;0;8;0;9770;0;0;0;0;9;0;5215;0;0;0;0
21.01.20;17:25:00;1;501;9911;0;2;0;7453;0;0;0;0;3;0;4839;0;0;0;0;4;0;6709;0;0;0;0;5;0;17459;2;0;0;0;0;0;6;0;13150;2;0;0;0;0;0;7;0;9829;0;0;0;0;8;0;9770;0;0;0;0;9;0;5215;0;0;0;0
21.01.20;17:20:00;1;309;9874;0;2;0;7453;0;0;0;0;3;0;4839;0;0;0;0;4;0;6709;0;0;0;0;5;0;17459;2;0;0;0;0;0;6;0;13150;2;0;0;0;0;0;7;0;9829;0;0;0;0;8;0;9770;0;0;0;0;9;0;5215;0;0;0;0
21.01.20;17:15:00;1;476;9848;0;2;0;7453;0;0;0;0;3;0;4839;0;0;0;0;4;0;6709;0;0;0;0;5;0;17459;2;0;0;0;0;0;6;0;13150;2;0;0;0;0;0;7;0;9829;0;0;0;0;8;0;9770;0;0;0;0;9;0;5215;0;0;0;0
21.01.20;17:10:00;1;2402;9800;0;2;0;7453;0;0;0;0;3;0;4839;0;0;0;0;4;0;6709;0;0;0;0;5;0;17459;2;0;0;0;0;0;6;0;13150;2;0;0;0;0;0;7;0;9829;0;0;0;0;8;0;9770;0;0;0;0;9;0;5215;0;0;0;0
21.01.20;17:05:00;1;813;9592;0;2;0;7453;0;0;0;0;3;0;4839;0;0;131;7;4;0;6709;0;0;0;0;5;0;17459;2;0;0;0;0;0;6;0;13150;2;0;0;0;0;0;7;0;9829;0;0;0;0;8;0;9770;0;0;0;0;9;0;5215;0;0;0;0
21.01.20;17:00:00;1;359;9527;0;2;0;7453;6;0;280;11;3;0;4839;6;0;308;14;4;0;6709;0;0;27;3;5;0;17459;2;0;0;0;0;0;6;0;13150;2;0;0;0;0;0;7;0;9829;0;0;0;0;8;0;9770;0;0;0;0;9;0;5215;0;0;0;0
21.01.20;16:55:00;1;755;9496;0;2;0;7453;6;0;319;11;3;0;4839;6;0;379;14;4;0;6709;2;0;86;7;5;0;17459;2;0;1;103;102;6;6;0;13150;2;1;0;23;23;3;7;0;9829;0;0;0;0;8;0;9770;0;0;0;0;9;0;5215;0;0;0;0
21.01.20;16:50:00;1;407;9444;0;2;0;7453;6;0;351;11;3;0;4839;4;1;413;14;4;0;6709;1;0;117;8;5;0;17459;2;0;0;324;327;20;6;0;13150;23;7;4;347;305;18;7;0;9829;0;0;85;4;8;0;9770;0;0;86;4;9;0;5215;0;0;222;7
21.01.20;16:45:00;1;427;9410;0;2;0;7453;6;0;376;11;3;0;4839;3;4;425;14;4;0;6709;1;0;155;8;5;0;17459;26;0;0;410;476;20;6;0;13150;23;5;4;328;401;18;7;0;9829;6;0;300;13;8;0;9770;6;0;306;12;9;0;5215;6;0;322;9
21.01.20;16:40:00;1;417;9375;0;2;0;7453;6;0;400;11;3;0;4839;6;3;486;14;4;0;6709;1;0;194;8;5;8;17459;1;0;0;421;663;20;6;0;13150;23;5;2;182;578;19;7;0;9829;6;0;385;13;8;0;9770;6;0;392;12;9;0;5215;6;0;405;9
21.01.20;16:35:00;1;423;9318;0;2;1;7453;6;7;398;11;3;1;4839;6;4;496;14;4;0;6709;1;0;207;9;5;27;17458;1;3;6;419;665;21;6;0;13150;23;5;5;415;590;19;7;0;9829;6;2;411;13;8;0;9770;6;2;415;13;9;0;5215;6;0;452;9
21.01.20;16:30:00;1;411;9282;0;2;1;7453;6;7;410;12;3;0;4838;6;4;511;14;4;0;6709;3;0;218;9;5;85;17455;4;15;14;390;619;22;6;45;13150;1;25;39;509;485;21;7;0;9829;6;1;447;13;8;2;9770;6;1;450;13;9;2;5215;4;3;469;9
21.01.20;16:25:00;1;1775;9223;0;2;5;7453;6;11;414;12;3;0;4838;6;6;520;14;4;1;6709;3;1;199;10;5;108;17448;4;35;29;390;619;22;6;71;13146;4;28;36;485;462;21;7;0;9829;6;5;461;14;8;2;9770;6;4;465;13;9;2;5214;3;6;482;9
21.01.20;16:20:00;1;1936;9114;0;2;28;7453;6;51;386;12;3;2;4838;6;6;536;14;4;3;6709;3;3;199;10;5;138;17439;4;47;42;390;619;22;6;91;13139;4;38;49;486;462;21;7;1;9829;6;6;485;14;8;1;9770;6;7;471;13;9;1;5214;6;4;350;6
21.01.20;16:15:00;1;1787;8944;0;2;53;7451;4;88;379;12;3;5;4838;3;11;540;14;4;16;6708;3;16;198;10;5;175;17427;4;69;61;390;619;22;6;119;13132;4;56;75;486;462;21;7;0;9829;6;0;516;14;8;0;9770;6;0;520;14;9;2;5214;6;7;541;10
21.01.20;16:10:00;1;2544;8771;0;2;81;7446;4;115;370;12;3;15;4838;6;25;510;14;4;37;6707;3;38;197;10;5;220;17412;4;98;92;391;619;22;6;150;13122;4;73;84;486;463;21;7;50;9829;4;84;395;15;8;46;9770;4;83;399;14;9;3;5214;6;8;557;10
21.01.20;16:05:00;1;1568;8559;0;2;101;7439;4;135;368;12;3;54;4836;4;86;440;15;4;56;6704;3;58;197;10;5;260;17393;4;116;100;391;619;22;6;174;13109;4;83;89;486;462;21;7;79;9825;4;114;402;15;8;76;9766;4;114;411;14;9;9;5214;6;13;563;10
21.01.20;16:00:00;1;664;8444;0;2;114;7431;4;149;389;12;3;63;4832;4;102;492;15;4;74;6699;3;77;198;10;5;299;17371;4;136;117;391;619;22;6;194;13095;4;95;107;486;462;21;7;86;9818;4;135;464;15;8;102;9760;4;137;410;14;9;17;5213;4;25;542;11
21.01.20;15:55:00;1;250;8400;0;2;128;7421;4;168;390;13;3;71;4827;4;115;507;15;4;86;6693;3;89;206;11;5;332;17346;4;158;132;391;619;22;6;217;13078;4;100;117;485;462;21;7;100;9811;4;148;456;15;8;107;9751;4;145;421;15;9;24;5211;3;35;546;11
21.01.20;15:50:00;1;734;8379;0;2;144;7411;4;182;391;13;3;83;4821;4;122;484;15;4;103;6686;5;107;229;11;5;358;17318;4;175;148;390;619;22;6;237;13060;4;121;130;485;462;21;7;126;9802;4;171;450;15;8;133;9742;4;175;469;15;9;74;5209;4;102;459;12
21.01.20;15:45:00;1;3212;8308;0;2;185;7399;4;223;386;13;3;106;4814;4;150;510;15;4;140;6677;5;146;233;11;5;390;17287;4;189;162;397;619;22;6;272;13040;4;135;149;503;502;21;7;159;9792;4;202;444;15;8;162;9731;4;204;469;15;9;88;5203;4;118;508;12
21.01.20;15:40:00;1;282;8117;0;2;301;7383;4;345;405;14;3;185;4805;4;229;507;16;4;246;6666;5;256;235;11;5;605;17253;4;297;247;408;660;22;6;445;13016;4;232;241;585;567;21;7;317;9779;4;364;477;15;8;323;9718;4;368;484;15;9;174;5195;4;206;522;12
21.01.20;15:35:00;1;287;8071;0;2;367;7358;4;416;411;14;3;229;4789;4;274;518;16;4;314;6645;5;327;242;12;5;754;17202;4;377;319;417;682;23;6;570;12977;4;289;298;591;576;21;7;304;9753;4;345;364;12;8;397;9691;4;439;482;15;9;212;5181;4;249;530;12
21.01.20;15:30:00;1;288;8047;0;2;548;7328;4;602;418;14;3;340;4770;4;393;531;16;4;457;6619;5;476;248;12;5;959;17139;4;488;406;421;689;23;6;712;12930;4;354;365;605;580;21;7;553;9721;4;602;490;16;8;545;9658;4;595;496;15;9;291;5163;4;332;538;12
21.01.20;15:25:00;1;291;8022;0;2;669;7282;4;727;419;15;3;419;4742;4;473;527;16;4;579;6582;5;603;246;12;5;1269;17056;4;642;534;432;711;23;6;951;12868;4;514;517;606;590;21;7;628;9675;4;667;493;16;8;620;9613;4;668;495;16;9;328;5139;4;371;548;13
21.01.20;15:20:00;1;680;7998;0;2;647;7227;4;703;424;15;3;405;4707;4;461;530;17;4;559;6533;5;582;249;12;5;1246;16952;4;633;531;434;702;23;6;939;12790;4;502;509;608;589;21;7;562;9623;4;613;481;16;8;561;9561;4;611;484;16;9;295;5112;4;336;541;13
21.01.20;15:15:00;1;246;7954;0;2;621;7173;4;678;419;15;3;385;4674;4;440;530;17;4;536;6487;5;558;251;12;5;1208;16849;4;618;516;432;722;23;6;923;12711;4;456;460;607;592;21;7;580;9576;4;621;488;16;8;567;9514;4;622;490;16;9;306;5087;4;348;548;13
21.01.20;15:10:00;1;247;7933;0;2;581;7121;4;635;416;15;3;359;4642;4;411;517;17;4;505;6442;5;526;248;12;5;1167;16749;4;586;495;434;695;23;6;884;12635;4;454;467;606;586;21;7;522;9528;4;566;486;16;8;517;9467;4;569;490;16;9;230;5062;4;265;450;10
21.01.20;15:05:00;1;247;7912;0;2;532;7073;4;585;414;16;3;328;4612;4;380;513;17;4;470;6400;5;489;245;13;5;1135;16652;4;569;478;431;690;23;6;853;12561;4;446;447;605;588;22;7;507;9485;4;561;479;17;8;512;9424;4;566;493;16;9;276;5039;4;316;524;13
21.01.20;15:00:00;1;645;7892;0;2;468;7028;4;518;411;16;3;289;4584;4;338;519;17;4;402;6361;5;419;242;13;5;1000;16560;4;497;424;420;705;24;6;760;12491;4;382;398;596;581;22;7;429;9442;4;480;487;17;8;436;9382;4;484;488;17;9;230;5016;4;269;529;14
21.01.20;14:55:00;1;246;7848;0;2;579;6989;4;634;409;17;3;358;4560;4;412;513;18;4;482;6327;5;502;241;13;5;1104;16477;4;560;466;427;687;24;6;828;12428;4;421;428;598;579;22;7;552;9406;4;609;491;17;8;556;9345;4;605;485;17;9;289;4997;4;330;537;14
21.01.20;14:50:00;1;247;7827;0;2;712;6941;4;772;417;17;3;448;4530;4;506;526;18;4;593;6287;5;618;246;14;5;1304;16383;4;663;559;427;694;24;6;985;12358;4;493;499;601;578;22;7;782;9361;4;844;484;17;8;778;9299;4;833;477;17;9;411;4973;4;461;538;14
21.01.20;14:45:00;1;247;7807;0;2;964;6882;4;1033;419;18;3;595;4493;4;656;535;18;4;771;6238;5;802;252;14;5;1649;16273;4;861;714;425;705;24;6;1261;12275;4;679;684;597;588;22;7;1035;9296;4;1089;489;18;8;1008;9234;4;1072;484;17;9;536;4938;4;587;537;15
21.01.20;14:40:00;1;681;7786;0;2;1114;6801;4;1187;424;18;3;708;4444;4;773;541;19;4;1012;6174;5;1054;255;14;5;2418;16121;4;1273;1061;441;710;24;6;1793;12162;4;888;898;604;596;22;7;1307;9210;4;1372;497;18;8;1301;9151;4;1377;493;18;9;699;4894;4;764;558;15
21.01.20;14:35:00;1;310;7740;0;2;985;6708;4;1056;429;19;3;630;4384;4;696;543;19;4;806;6088;5;839;249;14;5;1762;15923;4;902;761;434;707;24;6;1338;12010;4;679;680;608;583;22;7;1093;9101;4;1163;496;18;8;1086;9043;4;1150;493;18;9;582;4835;4;637;548;15
21.01.20;14:30:00;1;347;7714;0;2;1087;6625;4;1158;412;19;3;699;4331;4;767;525;19;4;911;6019;5;949;253;15;5;2017;15774;4;1071;876;431;703;25;6;1491;11897;4;745;744;604;577;22;7;1492;9009;4;1570;483;18;8;1256;8951;4;1323;464;18;9;721;4786;4;785;544;15
21.01.20;14:25:00;1;355;7685;0;2;1924;6534;4;2034;417;21;3;1297;4272;4;1390;532;20;4;1155;5943;5;1204;253;15;5;3392;15605;4;1852;1476;436;713;24;6;2378;11769;4;1257;1184;607;586;22;7;2378;8885;4;2492;484;18;8;2305;8847;4;2413;470;18;9;945;4727;4;1019;559;16
21.01.20;14:20:00;1;1385;7655;0;2;2598;6383;4;2732;417;20;3;1787;4171;4;1896;548;19;4;1426;5849;5;1485;257;15;5;4449;15333;4;2450;1954;442;713;24;6;3261;11570;4;1693;1643;620;592;22;7;2217;8692;4;2323;480;18;8;2228;8654;4;2346;522;18;9;971;4646;4;1049;533;16
21.01.20;14:15:00;1;2264;7492;0;2;2722;6166;4;2872;432;19;3;1778;4021;4;1890;553;19;4;1544;5730;5;1608;263;15;5;4758;14954;4;2596;2110;448;724;24;6;3497;11287;4;1798;1744;631;591;22;7;2410;8510;4;2522;440;18;8;2572;8472;4;2711;528;18;9;1222;4566;4;1307;524;16
21.01.20;14:10:00;1;316;7346;0;2;1378;5936;4;1466;424;18;3;857;3872;4;930;537;18;4;1038;5602;5;1081;258;14;5;3228;14533;4;1742;1415;442;718;24;6;2536;10971;4;1314;1289;619;594;22;7;1678;8322;4;1768;496;18;8;1254;8271;4;1327;496;18;9;662;4470;4;719;537;15
21.01.20;14:05:00;1;294;7320;0;2;1509;5813;4;1599;420;18;3;892;3797;4;967;540;18;4;1055;5514;5;1098;252;15;5;2347;14292;4;1261;1023;442;720;24;6;1812;10784;4;889;893;610;589;22;7;1222;8173;4;1293;497;18;8;1208;8167;4;1275;492;18;9;640;4414;4;698;553;16
21.01.20;14:00:00;1;257;7297;0;2;1220;5676;4;1295;420;18;3;782;3717;4;851;528;18;4;1171;5427;5;1220;254;15;5;2727;14061;4;1464;1194;437;711;24;6;2014;10610;4;1028;1021;616;596;22;7;1652;8072;4;1747;498;19;8;1734;8066;4;1827;497;18;9;898;4361;4;971;550;16